WA7CUG Weather Reports


time (UTC)temp
F
wind
direction
speed
knots
gust
knots
rain 1hr
in
rain 24hr
in
rain mn
in
humidity
%
barometer
mb
20260506222035 84 258 9.6 12.2 0.00 0.00 0.00 30 1010.0
20260506221533 84 179 12.2 13.9 0.00 0.00 0.00 30 1009.9
20260506221031 84 221 7.8 8.7 0.00 0.00 0.00 30 1009.8
20260506220526 84 250 7.8 9.6 0.00 0.00 0.00 31 1010.0
20260506220022 84 213 6.1 7.0 0.00 0.00 0.00 31 1010.1
20260506215519 84 233 6.1 8.7 0.00 0.00 0.00 30 1010.0
20260506215015 85 221 7.8 9.6 0.00 0.00 0.00 30 1010.1
20260506214512 85 235 2.6 2.6 0.00 0.00 0.00 28 1009.9
20260506214009 85 232 3.5 5.2 0.00 0.00 0.00 31 1010.0
20260506213507 85 254 4.3 5.2 0.00 0.00 0.00 30 1010.0
20260506213004 86 181 7.0 7.8 0.00 0.00 0.00 30 1010.2
20260506212500 87 187 1.7 1.7 0.00 0.00 0.00 28 1010.2
20260506211955 86 178 0.0 0.0 0.00 0.00 0.00 32 1010.2
20260506211451 86 215 0.0 0.0 0.00 0.00 0.00 31 1010.1
20260506210949 85 174 0.0 0.9 0.00 0.00 0.00 27 1010.3
20260506210445 85 116 0.9 0.9 0.00 0.00 0.00 31 1010.4
20260506205942 85 132 1.7 1.7 0.00 0.00 0.00 30 1010.5
20260506205438 85 174 0.9 0.9 0.00 0.00 0.00 32 1010.5
20260506204934 86 101 0.9 0.9 0.00 0.00 0.00 29 1010.3
20260506204433 85 193 0.9 0.9 0.00 0.00 0.00 28 1010.4
20260506203930 85 99 3.5 5.2 0.00 0.00 0.00 29 1010.5
20260506203427 84 122 0.9 1.7 0.00 0.00 0.00 34 1010.5
20260506202924 84 60 1.7 2.6 0.00 0.00 0.00 31 1010.5
20260506202421 84 139 1.7 1.7 0.00 0.00 0.00 32 1010.5
20260506201917 84 120 2.6 2.6 0.00 0.00 0.00 31 1010.7
20260506201415 83 133 0.9 1.7 0.00 0.00 0.00 34 1010.8
20260506200911 83 128 2.6 2.6 0.00 0.00 0.00 34 1010.8
20260506200407 83 150 0.0 0.9 0.00 0.00 0.00 32 1010.7
20260506195904 82 146 2.6 2.6 0.00 0.00 0.00 35 1010.9
20260506195401 81 170 0.9 1.7 0.00 0.00 0.00 37 1010.9
20260506194858 81 111 0.9 1.7 0.00 0.00 0.00 36 1010.9
20260506194355 80 107 3.5 4.3 0.00 0.00 0.00 36 1010.8
20260506193852 82 140 0.0 0.9 0.00 0.00 0.00 39 1011.1
20260506193349 82 173 0.0 0.9 0.00 0.00 0.00 37 1011.1
20260506192845 81 177 0.9 0.9 0.00 0.00 0.00 36 1011.4
20260506192342 80 112 2.6 4.3 0.00 0.00 0.00 41 1011.8
20260506191839 79 104 0.9 0.9 0.00 0.00 0.00 41 1011.7
20260506191335 79 171 0.9 1.7 0.00 0.00 0.00 40 1011.8
20260506190832 79 183 0.0 0.0 0.00 0.00 0.00 39 1011.8
20260506190328 80 178 0.0 0.0 0.00 0.00 0.00 38 1011.9
20260506185826 78 145 0.0 0.9 0.00 0.00 0.00 44 1012.0
20260506185323 78 116 0.0 0.9 0.00 0.00 0.00 45 1012.1
20260506184820 77 166 0.0 0.9 0.00 0.00 0.00 44 1012.2
20260506184317 77 171 0.9 0.9 0.00 0.00 0.00 45 1012.3
20260506183814 77 179 0.9 1.7 0.00 0.00 0.00 43 1012.2
20260506183309 77 293 0.9 1.7 0.00 0.00 0.00 45 1012.4
20260506182806 78 161 0.9 0.9 0.00 0.00 0.00 43 1012.5
20260506182306 77 176 0.0 0.0 0.00 0.00 0.00 43 1012.1
20260506181801 76 85 1.7 1.7 0.00 0.00 0.00 45 1012.5
20260506181259 76 309 1.7 1.7 0.00 0.00 0.00 47 1012.2
20260506180756 74 181 0.0 0.9 0.00 0.00 0.00 44 1012.6
20260506180252 75 163 0.9 0.9 0.00 0.00 0.00 47 1012.4
20260506175748 74 216 1.7 1.7 0.00 0.00 0.00 46 1012.7
20260506175245 73 158 0.9 1.7 0.00 0.00 0.00 47 1012.6
20260506174743 73 196 0.9 0.9 0.00 0.00 0.00 48 1012.6
20260506174239 72 244 2.6 2.6 0.00 0.00 0.00 48 1012.5
20260506173737 72 282 3.5 5.2 0.00 0.00 0.00 48 1012.8
20260506173234 72 235 0.9 0.9 0.00 0.00 0.00 48 1012.6
20260506172730 71 217 3.5 4.3 0.00 0.00 0.00 51 1012.6
20260506172227 70 2 3.5 5.2 0.00 0.00 0.00 50 1012.8
20260506171719 71 61 2.6 2.6 0.00 0.00 0.00 53 1012.8
20260506171216 71 123 2.6 4.3 0.00 0.00 0.00 51 1012.9
20260506170714 71 163 0.0 0.0 0.00 0.00 0.00 49 1012.9
20260506170210 71 111 2.6 4.3 0.00 0.00 0.00 48 1013.0
20260506165709 70 143 1.7 2.6 0.00 0.00 0.00 51 1013.2
20260506165205 70 159 0.0 0.0 0.00 0.00 0.00 49 1013.1
20260506164703 69 132 0.9 0.9 0.00 0.00 0.00 56 1013.0
20260506164200 69 80 0.9 1.7 0.00 0.00 0.00 51 1013.3
20260506163656 70 140 0.9 0.9 0.00 0.00 0.00 52 1013.0
20260506163151 70 163 0.9 0.9 0.00 0.00 0.00 50 1013.1
20260506162647 69 177 0.9 0.9 0.00 0.00 0.00 53 1013.1
20260506162145 69 193 0.9 0.9 0.00 0.00 0.00 51 1013.3
20260506161642 68 137 0.9 0.9 0.00 0.00 0.00 52 1013.4
20260506161139 70 174 0.0 0.0 0.00 0.00 0.00 51 1013.3
20260506160636 70 132 0.9 1.7 0.00 0.00 0.00 51 1013.2
20260506160133 69 173 0.0 0.0 0.00 0.00 0.00 52 1013.2
20260506155632 68 170 0.0 0.0 0.00 0.00 0.00 51 1013.1
20260506155128 66 157 0.0 0.9 0.00 0.00 0.00 55 1013.5
20260506153231 65 109 1.7 1.7 0.00 0.00 0.00 55 1013.6
20260506152727 65 145 1.7 2.6 0.00 0.00 0.00 56 1013.5
20260506152225 65 145 0.9 1.7 0.00 0.00 0.00 57 1013.6
20260506151724 65 130 1.7 1.7 0.00 0.00 0.00 56 1013.7
20260506151220 65 170 0.9 0.9 0.00 0.00 0.00 56 1013.8
20260506150716 64 168 0.0 0.9 0.00 0.00 0.00 57 1013.7
20260506150214 65 150 0.9 0.9 0.00 0.00 0.00 56 1013.7
20260506145711 64 168 0.0 0.0 0.00 0.00 0.00 55 1013.8
20260506145207 64 151 0.9 1.7 0.00 0.00 0.00 61 1013.6
20260506144705 63 174 0.0 0.0 0.00 0.00 0.00 58 1013.5
20260506144201 63 166 0.0 0.0 0.00 0.00 0.00 58 1013.8
20260506143659 62 171 0.0 0.0 0.00 0.00 0.00 62 1013.8
20260506143157 61 168 0.0 0.9 0.00 0.00 0.00 62 1013.6
20260506142655 60 139 1.7 1.7 0.00 0.00 0.00 62 1013.7
20260506142152 60 167 0.9 0.9 0.00 0.00 0.00 63 1013.6
20260506141650 60 178 0.0 0.0 0.00 0.00 0.00 63 1013.7
20260506141148 60 175 0.9 0.9 0.00 0.00 0.00 63 1013.6
20260506140645 60 162 0.0 0.0 0.00 0.00 0.00 62 1013.6
20260506140142 60 167 1.7 1.7 0.00 0.00 0.00 62 1013.4
20260506135639 60 177 0.0 0.9 0.00 0.00 0.00 64 1013.5
20260506135136 59 171 0.0 0.9 0.00 0.00 0.00 64 1013.4
20260506134632 59 166 0.0 0.0 0.00 0.00 0.00 64 1013.4
20260506134128 59 164 0.0 0.9 0.00 0.00 0.00 65 1013.4
20260506133625 58 170 0.0 0.0 0.00 0.00 0.00 66 1013.5
20260506133122 57 171 0.0 0.0 0.00 0.00 0.00 66 1013.3
20260506132620 57 175 0.9 0.9 0.00 0.00 0.00 67 1013.4
20260506132117 57 192 0.9 0.9 0.00 0.00 0.00 67 1013.2
20260506131614 56 159 0.0 0.9 0.00 0.00 0.00 67 1013.0
20260506131110 56 179 0.0 0.9 0.00 0.00 0.00 68 1013.0
20260506130607 56 159 0.0 0.0 0.00 0.00 0.00 68 1013.1
20260506130105 55 170 0.0 0.9 0.00 0.00 0.00 69 1012.9
20260506125603 55 195 0.9 1.7 0.00 0.00 0.00 69 1012.9
20260506125100 54 175 0.9 0.9 0.00 0.00 0.00 71 1012.9
20260506124558 54 177 0.0 0.9 0.00 0.00 0.00 72 1013.0
20260506124055 53 181 0.9 1.7 0.00 0.00 0.00 73 1012.7
20260506123553 52 167 0.0 0.9 0.00 0.00 0.00 75 1012.7
20260506123051 51 174 0.9 0.9 0.00 0.00 0.00 77 1012.8
20260506122547 51 173 0.0 0.0 0.00 0.00 0.00 77 1012.9
20260506122046 52 176 0.0 0.0 0.00 0.00 0.00 76 1012.7
20260506121543 52 208 1.7 1.7 0.00 0.00 0.00 76 1012.8
20260506121039 53 176 0.0 0.0 0.00 0.00 0.00 74 1012.7
20260506120537 54 202 0.0 0.9 0.00 0.00 0.00 73 1012.5
20260506120034 56 169 1.7 1.7 0.00 0.00 0.00 67 1012.6
20260506115532 56 171 2.6 4.3 0.00 0.00 0.00 67 1012.4
20260506115031 55 197 0.0 0.9 0.00 0.00 0.00 69 1012.6
20260506114527 53 187 0.9 0.9 0.00 0.00 0.00 74 1012.7
20260506114026 53 179 0.0 0.0 0.00 0.00 0.00 76 1012.7
20260506113523 54 176 0.0 0.0 0.00 0.00 0.00 73 1012.7
20260506113021 54 168 0.0 0.0 0.00 0.00 0.00 74 1012.4
20260506112517 54 156 0.0 0.0 0.00 0.00 0.00 73 1012.5
20260506112014 54 186 0.0 0.0 0.00 0.00 0.00 72 1012.6
20260506111512 54 179 0.0 0.9 0.00 0.00 0.00 73 1012.7
20260506111009 55 182 0.0 0.0 0.00 0.00 0.00 71 1012.4
20260506110507 55 173 0.0 0.0 0.00 0.00 0.00 69 1012.6
20260506110004 55 177 0.0 0.0 0.00 0.00 0.00 70 1012.4
20260506105459 56 177 0.0 0.0 0.00 0.00 0.00 69 1012.3
20260506104957 56 168 0.9 0.9 0.00 0.00 0.00 68 1012.3
20260506104455 57 176 0.0 0.0 0.00 0.00 0.00 67 1012.2
20260506103953 57 174 0.0 0.9 0.00 0.00 0.00 65 1012.3
20260506103450 58 179 0.0 0.0 0.00 0.00 0.00 65 1012.0
20260506102946 58 184 0.0 0.9 0.00 0.00 0.00 64 1012.0
20260506102445 59 185 0.9 0.9 0.00 0.00 0.00 63 1011.8
20260506101942 59 187 0.9 1.7 0.00 0.00 0.00 62 1011.9
20260506101438 59 241 4.3 7.0 0.00 0.00 0.00 62 1012.0
20260506100935 58 237 3.5 4.3 0.00 0.00 0.00 63 1012.2
20260506100434 57 186 0.9 0.9 0.00 0.00 0.00 66 1012.1
20260506095931 57 172 0.0 0.0 0.00 0.00 0.00 68 1012.1
20260506095430 57 167 0.9 0.9 0.00 0.00 0.00 67 1012.2
20260506094926 56 177 0.0 0.0 0.00 0.00 0.00 69 1012.1
20260506094424 56 179 0.0 0.0 0.00 0.00 0.00 68 1012.0
20260506093921 56 183 0.0 0.0 0.00 0.00 0.00 69 1012.1
20260506093419 57 177 0.0 0.0 0.00 0.00 0.00 70 1012.0
20260506092917 57 176 0.0 0.0 0.00 0.00 0.00 67 1011.9
20260506092415 58 183 0.0 0.0 0.00 0.00 0.00 67 1012.0
20260506091911 59 177 0.0 0.0 0.00 0.00 0.00 65 1011.8
20260506091409 60 169 0.9 0.9 0.00 0.00 0.00 61 1011.4
20260506090906 60 175 0.0 0.0 0.00 0.00 0.00 62 1011.7
20260506090404 60 173 0.9 0.9 0.00 0.00 0.00 61 1011.7
20260506085900 61 174 0.0 0.0 0.00 0.00 0.00 60 1011.8
20260506085357 62 180 0.0 0.0 0.00 0.00 0.00 59 1011.7
20260506084853 62 170 0.0 0.9 0.00 0.00 0.00 58 1011.8
20260506084350 62 207 1.7 2.6 0.00 0.00 0.00 58 1011.8
20260506083846 62 202 2.6 4.3 0.00 0.00 0.00 57 1011.7
20260506083344 63 211 0.9 0.9 0.00 0.00 0.00 57 1011.7
20260506082841 63 196 1.7 1.7 0.00 0.00 0.00 57 1011.8
20260506082338 63 175 0.9 1.7 0.00 0.00 0.00 56 1011.5
20260506081834 63 210 0.0 0.0 0.00 0.00 0.00 57 1011.5
20260506081332 62 201 0.9 1.7 0.00 0.00 0.00 56 1011.5
20260506080829 62 220 1.7 4.3 0.00 0.00 0.00 57 1011.4
20260506080326 62 181 0.9 1.7 0.00 0.00 0.00 58 1011.7
20260506073310 59 164 1.7 1.7 0.00 0.00 0.00 64 1010.9
20260506072807 60 142 1.7 1.7 0.00 0.00 0.00 62 1010.8
20260506072306 61 137 0.9 0.9 0.00 0.00 0.00 61 1010.9
20260506071802 62 159 0.0 0.9 0.00 0.00 0.00 60 1010.9
20260506071300 61 190 0.9 0.9 0.00 0.00 0.00 62 1010.9
20260506070756 59 190 0.9 0.9 0.00 0.00 0.00 66 1010.9
20260506070254 61 178 0.0 0.0 0.00 0.00 0.00 62 1010.8
20260506062230 63 174 0.0 0.0 0.00 0.00 0.00 58 1010.8
20260506061726 61 185 0.9 0.9 0.00 0.00 0.00 68 1010.7
20260506061224 62 178 0.0 0.0 0.00 0.00 0.00 62 1010.6
20260506060723 60 171 0.0 0.9 0.00 0.00 0.00 63 1010.6
20260506060219 63 183 0.9 0.9 0.00 0.00 0.00 65 1010.6
20260506051145 69 181 0.0 0.9 0.00 0.00 0.00 48 1010.3
20260506050644 69 212 0.9 1.7 0.00 0.00 0.00 47 1010.1
20260506050140 69 175 0.0 0.9 0.00 0.00 0.00 48 1010.2
20260506045133 70 188 0.9 0.9 0.00 0.00 0.00 46 1010.2
20260506044631 71 179 0.0 0.0 0.00 0.00 0.00 47 1010.0
20260506044128 70 200 1.7 2.6 0.00 0.00 0.00 48 1010.0
20260506043625 71 200 0.0 0.9 0.00 0.00 0.00 47 1010.1
20260506043123 71 162 0.9 1.7 0.00 0.00 0.00 46 1009.9
20260506042622 71 180 0.9 1.7 0.00 0.00 0.00 46 1009.6
20260506042120 71 176 3.5 6.1 0.00 0.00 0.00 46 1009.7
20260506041618 71 235 0.9 2.6 0.00 0.00 0.00 46 1009.6
20260506041114 71 161 0.0 0.9 0.00 0.00 0.00 47 1009.8
20260506040612 72 173 0.9 0.9 0.00 0.00 0.00 46 1009.6
20260506040109 76 157 0.9 1.7 0.00 0.00 0.00 42 1009.3
20260506035606 77 222 3.5 5.2 0.00 0.00 0.00 39 1009.3
20260506035102 77 168 3.5 5.2 0.00 0.00 0.00 38 1009.1
20260506034600 77 201 4.3 6.1 0.00 0.00 0.00 38 1009.3
20260506034056 78 220 6.1 9.6 0.00 0.00 0.00 37 1009.3
20260506033554 78 229 9.6 12.2 0.00 0.00 0.00 36 1009.3
20260506033050 78 244 11.3 13.9 0.00 0.00 0.00 36 1009.2
20260506032548 78 186 7.8 11.3 0.00 0.00 0.00 37 1009.2
20260506032045 78 221 5.2 7.8 0.00 0.00 0.00 37 1009.2
20260506031542 78 236 6.1 9.6 0.00 0.00 0.00 37 1009.3
20260506031039 78 225 3.5 5.2 0.00 0.00 0.00 38 1009.2
20260506030537 77 234 1.7 4.3 0.00 0.00 0.00 40 1009.2
20260506030034 74 204 3.5 4.3 0.00 0.00 0.00 42 1009.1
20260506025531 75 179 0.9 0.9 0.00 0.00 0.00 47 1009.0
20260506025027 75 180 0.0 0.9 0.00 0.00 0.00 45 1009.1
20260506024524 75 187 0.0 0.9 0.00 0.00 0.00 43 1009.1
20260506024020 77 178 0.9 0.9 0.00 0.00 0.00 49 1009.0
20260506023516 77 186 0.9 1.7 0.00 0.00 0.00 40 1009.1
20260506023015 76 181 0.9 0.9 0.00 0.00 0.00 47 1009.1
20260506022512 79 191 0.0 0.0 0.00 0.00 0.00 49 1008.9
20260506022009 79 183 0.0 0.9 0.00 0.00 0.00 50 1009.1
20260506021506 81 183 0.9 0.9 0.00 0.00 0.00 47 1008.9
20260506021004 80 178 0.0 0.0 0.00 0.00 0.00 46 1008.9
20260506020501 82 211 0.9 0.9 0.00 0.00 0.00 45 1008.8
20260506015957 82 175 0.0 0.9 0.00 0.00 0.00 36 1008.8
20260506015455 82 172 0.9 0.9 0.00 0.00 0.00 38 1009.0
20260506014952 84 177 0.0 0.0 0.00 0.00 0.00 39 1008.9
20260506014449 84 177 0.0 0.0 0.00 0.00 0.00 40 1008.9
20260506013945 87 190 0.9 0.9 0.00 0.00 0.00 42 1008.8
20260506013444 87 184 0.0 0.9 0.00 0.00 0.00 37 1008.8
20260506012939 85 180 0.0 0.0 0.00 0.00 0.00 28 1009.0
20260506012436 84 176 0.0 0.0 0.00 0.00 0.00 30 1008.7
20260506011933 85 173 0.0 0.0 0.00 0.00 0.00 30 1008.9
20260506011431 84 174 0.0 0.0 0.00 0.00 0.00 29 1008.8
20260506010927 84 153 0.0 0.0 0.00 0.00 0.00 31 1009.0
20260506010426 84 141 0.9 0.9 0.00 0.00 0.00 28 1009.2
20260506005922 85 183 1.7 1.7 0.00 0.00 0.00 27 1009.1
20260506005420 84 175 0.9 0.9 0.00 0.00 0.00 29 1009.2
20260506004915 84 126 0.9 1.7 0.00 0.00 0.00 27 1009.1
20260506004413 84 188 0.0 0.0 0.00 0.00 0.00 29 1009.2
20260506003909 85 162 0.0 0.0 0.00 0.00 0.00 29 1009.3
20260506003405 84 157 0.9 1.7 0.00 0.00 0.00 28 1009.1
20260506002902 84 132 0.0 0.9 0.00 0.00 0.00 28 1009.2
20260506002358 84 84 0.9 0.9 0.00 0.00 0.00 26 1009.1
20260506001854 84 157 0.9 0.9 0.00 0.00 0.00 29 1009.5
20260506001351 85 97 0.9 0.9 0.00 0.00 0.00 26 1009.2
20260506000848 85 175 0.9 0.9 0.00 0.00 0.00 29 1009.5
20260506000346 85 200 0.9 0.9 0.00 0.00 0.00 29 1009.4
20260505235842 85 102 0.9 0.9 0.00 0.00 0.00 30 1009.6
20260505235340 84 170 0.9 0.9 0.00 0.00 0.00 26 1009.6
20260505234836 85 168 2.6 2.6 0.00 0.00 0.00 27 1009.6
20260505234335 84 176 0.9 0.9 0.00 0.00 0.00 28 1009.8
20260505233831 84 46 2.6 4.3 0.00 0.00 0.00 28 1009.8
20260505233329 85 68 2.6 2.6 0.00 0.00 0.00 29 1009.9
20260505232826 84 123 1.7 2.6 0.00 0.00 0.00 26 1009.9
20260505232324 84 38 2.6 2.6 0.00 0.00 0.00 28 1009.7
20260505231820 84 168 0.0 0.0 0.00 0.00 0.00 29 1010.0
20260505231318 84 168 0.9 0.9 0.00 0.00 0.00 27 1010.3
20260505230816 84 99 2.6 4.3 0.00 0.00 0.00 28 1010.2
20260505230313 85 168 0.9 0.9 0.00 0.00 0.00 26 1010.2
20260505225809 87 175 0.9 0.9 0.00 0.00 0.00 25 1010.2
20260505225307 88 171 0.0 0.0 0.00 0.00 0.00 27 1010.5
20260505224802 88 182 0.9 0.9 0.00 0.00 0.00 26 1010.4
20260505224300 86 194 0.0 0.0 0.00 0.00 0.00 32 1010.7
20260505223757 86 181 0.0 0.9 0.00 0.00 0.00 27 1010.7
20260505223254 85 135 0.0 0.0 0.00 0.00 0.00 27 1010.6
20260505222749 85 145 0.0 0.0 0.00 0.00 0.00 25 1010.6
20260505222246 83 178 0.0 0.0 0.00 0.00 0.00 26 1010.7